SCP
1 1 1 1 1 2 2 2 2 2 2 1 1 1 1 1 1 1 1 1 1 0 0 0 0 0 0 0 0 0 0 0 0 0 0 0 0 0 0 0 0 0 0
1 1 1 1 2 2 2 2 2 2 2 1 1 1 1 1 1 1 1 1 1 0 0 0 0 0 0 0 0 0 0 0 0 0 0 0 0 0 0 0 0 0 0
1 2 2 2 2 2 2 2 2 2 2 2 1 1 1 1 1 1 1 1 1 0 0 0 0 0 0 0 0 0 0 0 0 0 0 0 0 0 0 0 0 0 0
1 2 2 2 2 2 2 2 2 2 2 2 1 1 1 1 1 1 1 1 1 1 0 0 0 0 0 0 0 0 0 0 0 0 0 0 0 0 0 0 0 0 0
1 1 2 2 2 2 2 2 3 3 2 2 1 1 1 1 1 1 1 1 1 1 0 0 0 0 0 0 0 0 0 0 0 0 0 0 0 0 0 0 0 0 0
1 1 2 2 2 2 2 2 3 3 2 2 2 1 1 1 1 1 1 1 1 1 1 0 0 1 0 0 0 0 0 0 0 0 0 0 0 0 0 0 0 0 0
1 1 2 2 2 2 2 3 3 3 2 2 1 1 1 1 1 1 1 1 1 1 1 1 1 1 1 1 1 1 1 1 1 0 0 0 0 0 0 0 0 0 0
1 1 2 2 2 2 2 3 3 3 2 2 1 1 1 1 1 1 1 1 1 1 1 1 1 1 1 1 1 1 1 1 1 1 1 0 0 0 0 0 0 0 0
1 1 1 2 2 2 2 2 3 2 2 2 1 1 1 1 1 1 1 1 1 1 1 1 1 1 1 1 1 1 1 1 1 1 1 1 0 0 0 0 0 0 0
1 1 1 1 1 2 2 2 2 2 2 2 1 1 1 1 1 1 1 1 1 1 1 1 1 1 1 1 1 1 1 1 1 1 1 1 1 1 1 0 0 0 0
1 1 1 1 1 1 2 2 2 2 2 2 1 1 1 1 1 1 1 1 1 1 1 1 1 1 1 1 1 1 1 1 1 1 1 1 1 1 1 1 1 0 0
1 1 1 1 1 1 2 2 2 2 2 1 1 1 1 1 1 1 1 1 1 1 1 1 1 1 1 1 1 1 1 1 1 1 1 1 1 1 1 1 1 1 0
1 1 1 2 2 2 2 2 2 2 1 1 1 1 1 1 1 1 1 1 1 1 1 1 1 1 1 1 1 1 1 1 1 1 1 1 1 1 1 1 1 0 0
1 1 2 2 2 2 2 2 2 2 1 1 1 1 1 1 1 1 1 1 1 1 1 1 1 1 1 1 1 1 1 1 1 1 1 1 1 1 1 0 0 0 0
1 1 2 2 2 2 2 2 2 2 2 2 1 1 1 1 1 1 1 1 1 1 1 1 1 1 1 1 1 1 1 1 1 1 1 0 0 0 0 0 0 0 0
1 1 2 2 2 2 2 2 2 2 2 2 2 1 1 1 1 1 1 1 1 1 1 1 1 1 1 0 0 0 1 1 1 1 0 0 0 0 0 0 0 0 0
1 1 2 2 2 2 2 2 2 2 2 2 2 2 2 2 1 1 1 1 1 1 1 1 1 1 1 0 0 0 0 0 1 1 0 0 0 0 0 0 0 0 0
1 1 1 1 1 1 1 1 1 2 2 2 2 2 2 1 1 1 1 1 1 1 1 1 1 1 1 0 0 0 0 0 0 0 0 0 0 0 0 0 0 0 0
1 1 1 1 1 1 1 1 1 2 2 2 2 2 2 1 1 1 2 2 1 1 1 1 1 1 1 0 0 0 0 0 0 0 0 0 0 0 0 0 0 0 0
1 1 1 1 1 1 1 1 1 1 1 2 2 2 2 1 1 2 2 2 1 1 1 1 1 1 1 0 0 0 0 0 0 0 0 0 0 0 0 0 0 0 0
1 1 1 1 1 1 1 1 1 1 1 1 2 2 2 2 2 2 2 1 1 1 1 1 1 1 1 0 0 0 0 0 0 0 0 0 0 0 0 0 0 0 0
1 1 1 1 1 1 1 1 1 1 1 2 2 2 2 2 2 2 1 1 1 1 1 1 1 1 0 0 0 0 0 0 0 0 0 0 0 0 0 0 0 0 0
1 1 1 1 1 1 1 1 2 2 2 2 2 2 2 2 2 1 1 1 1 1 1 1 1 1 0 0 0 0 0 0 0 0 0 0 0 0 0 0 0 0 0
1 1 1 1 1 1 1 1 2 2 2 2 2 2 2 2 1 1 1 1 1 1 1 1 1 0 0 0 0 0 0 0 0 0 0 0 0 0 0 0 0 0 0
1 1 1 1 1 1 1 1 2 2 2 2 2 2 1 1 1 1 0 0 0 0 0 0 0 0 0 0 0 0 0 0 0 0 0 0 0 0 0 0 0 0 0
1 1 1 1 1 1 1 1 2 2 2 2 2 1 1 1 1 0 0 0 0 0 0 0 0 0 0 0 0 0 0 0 0 0 0 0 0 0 0 0 0 0 0
Wind_Speed
15 14 14 14 14 12 11 10 9 8 6 5 5 4 4 3 3 4 5 5 4 4 2 2 2 2 1 2 2 2 2 1 1 0 0 1 2 3 2 2 3 4 5
14 15 14 14 14 13 12 11 10 10 8 6 4 4 4 3 4 3 5 6 5 4 5 3 3 3 2 2 2 1 1 1 1 1 0 0 1 1 3 3 4 4 4
15 16 15 14 15 14 14 12 11 10 9 7 5 4 3 3 3 4 4 5 5 5 4 4 3 3 3 3 3 3 3 2 1 1 1 1 1 1 1 2 2 3 3
15 16 16 15 15 15 14 11 11 10 9 8 7 7 6 5 5 4 4 5 5 5 5 5 4 3 3 3 4 4 2 2 2 1 1 2 1 1 1 1 1 2 2
14 15 16 15 15 15 14 12 11 10 10 9 8 7 6 5 4 4 5 5 5 5 5 5 5 4 3 4 4 3 3 2 3 2 1 2 2 2 2 2 2 1 2
11 12 13 12 12 13 13 13 12 11 10 10 9 8 7 5 4 4 5 5 4 5 6 6 5 5 4 4 4 3 4 3 2 2 2 1 1 2 2 2 2 2 2
10 10 11 13 12 12 13 12 13 12 11 11 9 8 7 6 5 5 5 5 4 4 6 6 5 5 5 5 4 4 4 4 3 3 3 2 2 2 2 2 2 2 1
8 9 10 11 12 13 12 12 13 12 11 11 9 8 7 6 5 6 5 5 4 4 5 6 6 6 5 6 5 4 4 4 4 5 4 2 2 2 2 2 2 2 2
8 8 9 10 11 12 12 12 12 12 11 11 10 8 8 7 6 5 5 4 4 4 4 5 5 5 5 5 4 4 4 4 4 4 4 3 3 3 2 2 2 2 3
6 7 7 7 8 9 11 12 12 12 11 10 9 9 9 8 5 4 5 5 4 3 3 4 4 4 5 5 5 4 4 4 4 3 3 3 3 3 3 3 3 3 3
6 6 5 6 7 8 10 10 11 11 10 10 9 7 8 7 6 5 5 4 4 4 4 4 4 4 4 4 4 5 5 5 4 4 4 5 4 3 3 3 2 2 2
5 6 6 5 5 7 8 9 9 10 9 8 8 7 6 7 7 7 6 5 5 4 4 4 4 4 4 4 5 5 5 5 4 4 4 4 4 4 3 3 3 2 2
5 5 5 4 4 5 5 7 6 7 8 8 8 7 6 6 6 6 5 5 4 4 4 3 4 3 3 3 4 5 4 4 4 3 4 4 3 3 3 3 3 2 3
5 5 4 4 4 4 4 5 5 6 7 6 6 6 5 5 4 4 4 3 3 4 4 3 3 3 2 3 3 4 4 3 3 2 2 2 2 2 2 2 2 2 2
3 5 4 4 4 4 4 3 4 4 5 6 5 5 4 4 4 4 3 3 3 4 3 3 2 2 1 2 2 2 3 2 1 1 1 0 2 2 2 1 1 2 2
3 4 5 4 4 4 4 3 4 4 4 5 5 4 4 4 4 3 3 3 3 3 3 3 2 2 1 0 1 1 1 1 1 0 0 1 3 3 4 4 5 4 2
3 4 4 4 4 3 3 3 3 4 4 4 4 4 4 3 3 3 3 3 3 3 2 2 2 2 2 3 3 2 1 1 1 1 2 1 2 2 3 3 4 4 4
4 4 3 4 4 3 3 2 3 4 3 3 3 3 3 3 3 3 3 3 3 3 2 3 2 3 3 3 3 3 2 2 3 3 3 3 3 3 2 2 3 4 5
4 4 3 3 3 3 2 2 3 3 3 3 3 3 3 4 3 3 3 3 3 3 3 3 3 3 3 2 2 3 2 3 4 4 4 3 3 4 3 2 3 3 3
5 4 4 4 4 3 3 2 2 3 3 2 2 3 4 4 4 3 3 3 3 3 3 4 4 4 4 3 3 3 3 3 3 4 4 6 4 4 4 3 3 3 2
6 5 4 4 4 3 3 2 2 3 2 3 3 4 4 4 4 4 3 4 4 4 4 5 5 5 4 4 5 4 2 3 3 3 3 3 6 6 6 4 3 2 1
5 4 4 4 4 4 3 3 3 2 3 3 4 4 4 4 5 5 4 4 4 4 4 5 5 4 4 5 6 6 4 3 3 3 3 4 5 5 5 4 4 3 2
4 4 4 4 4 3 3 3 2 2 3 4 4 5 5 4 5 4 4 3 3 3 3 4 4 4 4 5 7 7 6 5 4 4 5 4 4 4 4 5 4 3 2
4 3 4 4 3 3 4 3 3 3 4 5 5 5 6 6 6 5 4 4 3 2 3 3 4 4 4 4 3 3 4 5 4 3 4 4 4 4 4 4 3 3 3
4 3 4 4 4 3 3 3 3 3 4 5 5 6 6 7 7 8 7 6 6 4 3 3 3 4 4 3 3 3 3 2 3 3 2 2 3 3 3 3 3 3 3
3 3 4 4 4 3 3 3 3 3 5 5 5 5 6 6 7 8 8 14 11 13 13 10 7 6 6 6 7 7 7 6 5 4 4 3 3 3 3 3 3 3 3
Wind_Direction
174 168 169 167 166 163 165 169 172 164 167 174 182 188 186 183 172 167 162 171 187 178 194 187 174 191 153 160 162 163 196 220 226 270 304 255 191 170 177 196 186 184 186
171 169 171 172 171 169 170 173 176 173 181 180 184 187 182 192 182 178 166 179 187 184 189 192 199 180 169 182 190 204 242 238 197 183 206 309 332 278 200 188 198 190 185
175 172 176 179 178 176 177 181 180 177 184 178 184 190 176 203 190 178 173 184 186 193 215 188 208 185 190 183 196 217 220 235 248 209 183 196 212 269 270 229 209 184 183
179 176 178 181 184 180 179 179 176 177 181 180 189 192 193 200 198 180 176 183 192 196 200 202 203 212 221 184 204 207 215 219 251 250 218 200 162 177 265 276 219 196 200
180 178 181 182 185 181 177 178 174 177 180 188 195 197 202 201 190 178 170 181 192 202 205 201 196 207 226 212 214 201 211 224 236 251 233 200 195 208 198 245 256 248 211
174 175 179 173 178 180 175 178 174 179 183 189 196 199 205 201 196 183 172 188 191 201 210 209 198 201 217 222 214 205 212 231 248 275 276 236 210 214 211 222 229 239 235
173 172 170 170 176 180 178 177 175 182 185 190 198 198 206 206 204 200 194 200 203 203 206 209 196 201 210 216 213 210 222 218 225 240 255 253 245 244 230 229 240 247 242
170 171 171 170 176 181 180 177 175 181 185 191 196 196 199 207 209 208 211 209 218 215 201 198 196 202 208 217 209 216 216 216 220 232 237 254 257 257 238 232 235 257 259
166 170 173 174 176 177 176 178 175 179 186 192 191 195 198 207 212 200 211 216 217 221 197 197 201 204 208 212 209 220 223 216 218 227 232 238 253 254 252 247 227 225 244
160 159 167 167 168 171 170 175 175 180 186 190 194 196 197 202 206 212 205 213 211 219 194 200 208 210 212 209 212 221 222 219 223 228 238 241 248 248 241 241 245 234 226
150 143 144 152 161 165 168 171 174 176 182 189 193 198 194 198 200 211 214 209 216 212 208 208 211 211 210 208 212 223 217 222 223 227 230 234 240 253 253 249 246 248 234
122 125 125 138 149 156 163 165 171 175 179 182 185 196 194 195 202 209 215 209 210 213 213 213 214 220 218 212 216 230 226 222 224 230 237 242 244 248 258 260 252 248 240
102 102 110 122 132 144 149 156 163 166 170 175 183 189 196 196 202 207 207 210 204 203 206 202 205 217 222 220 225 228 229 228 228 229 233 246 256 260 259 260 257 248 249
94 99 99 106 115 113 122 143 154 160 163 167 180 185 194 194 197 202 195 193 188 188 194 196 203 210 225 233 231 228 224 227 229 227 234 250 261 272 280 273 281 280 276
97 105 107 107 111 112 114 123 144 146 153 159 174 179 177 176 182 188 182 178 183 192 180 181 191 198 222 240 236 229 214 212 210 230 264 227 83 57 35 337 332 310 284
93 99 110 116 119 117 125 130 131 139 148 160 168 163 167 169 171 179 179 171 173 172 166 172 174 184 219 244 131 185 226 158 144 175 74 124 93 77 77 59 48 40 8
102 94 94 94 100 105 115 131 132 135 145 157 160 151 152 155 158 172 169 164 157 152 148 143 146 134 78 81 101 107 106 87 81 87 73 58 63 60 71 75 62 44 35
116 104 97 98 107 109 119 130 132 129 129 135 140 133 139 145 144 140 139 138 135 134 138 132 130 111 85 87 109 109 116 80 66 66 71 72 52 43 52 76 66 52 36
106 105 100 95 90 90 99 112 118 122 129 136 140 140 141 138 135 135 128 126 127 130 131 117 111 102 79 76 114 127 118 100 83 72 60 68 69 38 42 75 69 58 44
97 89 84 83 78 62 64 88 109 107 115 129 128 125 126 129 129 123 118 116 115 116 112 107 99 93 82 68 84 122 117 109 104 94 77 60 59 51 47 74 74 60 30
78 74 70 76 74 65 68 81 92 91 102 109 116 119 121 124 122 120 116 113 113 110 102 101 93 85 78 75 69 81 92 101 99 90 80 68 71 67 62 69 69 55 30
84 77 72 70 64 59 69 81 81 85 105 112 119 118 116 124 123 117 114 117 122 120 114 110 101 87 80 75 76 78 76 69 85 86 85 87 90 87 79 72 62 54 58
81 80 80 79 70 64 71 80 71 84 111 113 114 113 107 91 98 108 112 114 115 119 117 113 107 96 84 76 79 84 80 74 85 79 90 95 90 84 80 75 64 56 42
76 79 85 83 68 61 67 67 65 80 107 114 111 106 101 89 75 66 63 64 50 81 105 108 110 105 89 72 74 95 97 96 98 101 101 97 76 67 64 56 51 46 37
64 68 78 79 75 74 78 75 81 102 112 114 113 108 103 99 84 69 49 60 48 35 67 85 89 99 97 71 72 89 81 85 93 106 103 83 77 74 69 61 56 49 39
73 68 80 82 81 76 74 71 82 100 111 115 115 115 114 111 110 103 81 55 60 57 58 65 84 78 88 97 85 79 74 72 80 86 81 70 64 63 62 57 55 54 44